TimeMDT,TemperatureF,Dew PointF,Humidity,Sea Level PressureIn,VisibilityMPH,Wind Direction,Wind SpeedMPH,Gust SpeedMPH,PrecipitationIn,Events,Conditions,WindDirDegrees,DateUTC
12:53 AM,72.0,54.0,53,29.97,10.0,East,19.6,-,N/A,,Clear,90,2013-09-04 06:53:00
1:53 AM,70.0,55.9,61,29.98,10.0,East,17.3,-,N/A,,Clear,90,2013-09-04 07:53:00
2:53 AM,68.0,55.9,65,29.98,10.0,East,15.0,-,N/A,,Clear,90,2013-09-04 08:53:00
3:53 AM,66.0,57.0,73,29.98,10.0,East,12.7,-,N/A,,Clear,80,2013-09-04 09:53:00
4:53 AM,64.0,57.0,78,29.99,10.0,East,12.7,-,N/A,,Clear,80,2013-09-04 10:53:00
5:53 AM,64.0,57.0,78,29.99,10.0,East,12.7,-,N/A,,Clear,90,2013-09-04 11:53:00
6:53 AM,63.0,57.0,81,30.01,10.0,East,10.4,-,N/A,,Clear,90,2013-09-04 12:53:00
7:53 AM,68.0,59.0,73,30.02,10.0,East,12.7,-,N/A,,Clear,90,2013-09-04 13:53:00
8:53 AM,70.0,59.0,68,30.03,10.0,ESE,16.1,-,N/A,,Clear,110,2013-09-04 14:53:00
9:53 AM,73.9,60.1,62,30.04,10.0,ESE,17.3,-,N/A,,Clear,110,2013-09-04 15:53:00
10:53 AM,71.1,61.0,70,30.08,10.0,SSE,10.4,-,0.00,Rain,Light Rain,150,2013-09-04 16:53:00
11:53 AM,66.9,64.0,90,30.09,6.0,SE,9.2,-,0.03,Rain,Light Rain,140,2013-09-04 17:53:00
12:53 PM,68.0,64.0,87,30.06,6.0,East,12.7,-,0.08,Rain,Light Rain,100,2013-09-04 18:53:00
1:53 PM,71.1,66.0,84,30.04,10.0,ESE,16.1,-,0.00,,Partly Cloudy,110,2013-09-04 19:53:00
2:53 PM,73.9,64.9,73,30.04,10.0,ESE,12.7,-,N/A,,Scattered Clouds,110,2013-09-04 20:53:00
3:53 PM,75.9,64.0,67,30.03,10.0,ESE,16.1,-,0.00,,Clear,110,2013-09-04 21:53:00
4:53 PM,77.0,64.0,64,30.01,10.0,ESE,16.1,-,N/A,,Clear,110,2013-09-04 22:53:00
5:53 PM,79.0,62.1,56,30.00,10.0,East,13.8,-,N/A,,Clear,100,2013-09-04 23:53:00
6:53 PM,77.0,63.0,62,30.00,10.0,East,10.4,-,N/A,,Clear,100,2013-09-05 00:53:00
7:53 PM,73.9,64.0,71,30.01,10.0,East,11.5,-,N/A,,Clear,100,2013-09-05 01:53:00
8:53 PM,73.0,63.0,71,30.01,10.0,East,11.5,-,N/A,,Clear,100,2013-09-05 02:53:00
9:53 PM,72.0,62.1,71,30.01,10.0,ESE,11.5,-,N/A,,Clear,110,2013-09-05 03:53:00
10:53 PM,70.0,61.0,73,30.02,10.0,ESE,8.1,-,N/A,,Clear,110,2013-09-05 04:53:00
11:53 PM,69.1,60.1,73,30.02,10.0,East,9.2,-,N/A,,Clear,100,2013-09-05 05:53:00